GLD1744 SBSI-SWJN

Flight info

Callsign GLD1744
Flight time 1h 57m
Altitude 2500
Route DCT 1138S05554W 1129S05610W 1118S05649W 1115S05731W 1125S05843W
Aircraft C152/L-SDFGIRY/S

Departure

Time 2026-04-20 18:32
Airport Presidente João Batista Figueiredo Airport (SBSI)

Arrival

Time 2026-04-20 20:29
Airport Juína Airport (SWJN)
Time Latitude Longitude Altitude Speed Heading
2026-04-20 18:08 -11.87804 -55.58242 1283 ft 0 kts 107°
2026-04-20 18:23 -11.87808 -55.58235 1280 ft 3 kts 172°
2026-04-20 18:23 -11.87854 -55.58245 1280 ft 8 kts 231°
2026-04-20 18:23 -11.87855 -55.58306 1280 ft 11 kts 278°
2026-04-20 18:23 -11.87840 -55.58372 1280 ft 0 kts 282°
2026-04-20 18:24 -11.87840 -55.58375 1280 ft 0 kts 280°
2026-04-20 18:24 -11.87839 -55.58376 1280 ft 0 kts 277°
2026-04-20 18:25 -11.87833 -55.58404 1280 ft 10 kts 282°
2026-04-20 18:25 -11.87882 -55.58467 1278 ft 17 kts 199°
2026-04-20 18:25 -11.88011 -55.58503 1280 ft 21 kts 195°
2026-04-20 18:25 -11.88163 -55.58544 1282 ft 23 kts 191°
2026-04-20 18:26 -11.88267 -55.58572 1283 ft 11 kts 195°
2026-04-20 18:26 -11.88350 -55.58594 1284 ft 13 kts 193°
2026-04-20 18:26 -11.88446 -55.58615 1284 ft 15 kts 196°
2026-04-20 18:26 -11.88550 -55.58648 1284 ft 16 kts 198°
2026-04-20 18:27 -11.88664 -55.58677 1284 ft 17 kts 195°
2026-04-20 18:27 -11.88783 -55.58706 1287 ft 18 kts 191°
2026-04-20 18:27 -11.88911 -55.58742 1284 ft 20 kts 185°
2026-04-20 18:27 -11.89046 -55.58782 1284 ft 21 kts 196°
2026-04-20 18:28 -11.89157 -55.58815 1284 ft 5 kts 222°
2026-04-20 18:28 -11.89192 -55.58835 1284 ft 7 kts 198°
2026-04-20 18:28 -11.89199 -55.58822 1284 ft 7 kts 18°
2026-04-20 18:28 -11.89184 -55.58817 1284 ft 0 kts 15°
2026-04-20 18:30 -11.89136 -55.58803 1284 ft 28 kts 16°
2026-04-20 18:30 -11.88806 -55.58715 1285 ft 66 kts 15°
2026-04-20 18:31 -11.88324 -55.58586 1326 ft 73 kts 18°
2026-04-20 18:31 -11.87835 -55.58474 1408 ft 70 kts 12°
2026-04-20 18:31 -11.87340 -55.58431 1486 ft 77 kts
2026-04-20 18:31 -11.86792 -55.58362 1634 ft 81 kts
2026-04-20 18:32 -11.86250 -55.58258 1844 ft 77 kts 11°
2026-04-20 18:32 -11.85725 -55.58375 1991 ft 84 kts 323°
2026-04-20 18:32 -11.85342 -55.58827 2168 ft 85 kts 310°
2026-04-20 18:32 -11.84984 -55.59294 2382 ft 84 kts 303°
2026-04-20 18:33 -11.84619 -55.59825 2497 ft 98 kts 310°
2026-04-20 18:33 -11.84204 -55.60421 2530 ft 105 kts 306°
2026-04-20 18:33 -11.83781 -55.61024 2552 ft 106 kts 307°
2026-04-20 18:33 -11.83312 -55.61621 2571 ft 109 kts 313°
2026-04-20 18:34 -11.82830 -55.62248 2528 ft 113 kts 306°
2026-04-20 18:34 -11.82401 -55.62897 2610 ft 105 kts 306°
2026-04-20 18:34 -11.81959 -55.63541 2442 ft 112 kts 311°
2026-04-20 18:34 -11.81474 -55.64144 2476 ft 109 kts 314°
2026-04-20 18:35 -11.80976 -55.64712 2452 ft 106 kts 313°
2026-04-20 18:35 -11.80440 -55.65239 2408 ft 107 kts 324°
2026-04-20 18:35 -11.79859 -55.65728 2457 ft 109 kts 319°
2026-04-20 18:35 -11.79304 -55.66237 2525 ft 106 kts 327°
2026-04-20 18:36 -11.78695 -55.66685 2478 ft 108 kts 328°
2026-04-20 18:36 -11.78172 -55.67241 2443 ft 110 kts 309°
2026-04-20 18:36 -11.77747 -55.67883 2406 ft 108 kts 307°
2026-04-20 18:36 -11.77282 -55.68475 2363 ft 109 kts 314°
2026-04-20 18:37 -11.76794 -55.69061 2360 ft 108 kts 311°
2026-04-20 18:37 -11.76344 -55.69674 2345 ft 109 kts 308°
2026-04-20 18:37 -11.75895 -55.70268 2411 ft 104 kts 310°
2026-04-20 18:37 -11.75452 -55.70846 2443 ft 104 kts 313°
2026-04-20 18:38 -11.74969 -55.71400 2419 ft 107 kts 314°
2026-04-20 18:38 -11.74502 -55.71996 2432 ft 108 kts 307°
2026-04-20 18:38 -11.74095 -55.72642 2414 ft 109 kts 302°
2026-04-20 18:38 -11.73706 -55.73322 2412 ft 108 kts 306°
2026-04-20 18:39 -11.73259 -55.73948 2439 ft 110 kts 307°
2026-04-20 18:39 -11.72841 -55.74589 2538 ft 107 kts 309°
2026-04-20 18:39 -11.72413 -55.75216 2505 ft 109 kts 306°
2026-04-20 18:39 -11.71967 -55.75835 2485 ft 107 kts 311°
2026-04-20 18:40 -11.71534 -55.76465 2515 ft 108 kts 300°
2026-04-20 18:40 -11.71232 -55.77168 2504 ft 110 kts 288°
2026-04-20 18:40 -11.71116 -55.77932 2479 ft 109 kts 273°
2026-04-20 18:40 -11.71054 -55.78707 2445 ft 110 kts 285°
2026-04-20 18:41 -11.70694 -55.79388 2390 ft 109 kts 310°
2026-04-20 18:41 -11.70230 -55.79984 2399 ft 107 kts 308°
2026-04-20 18:41 -11.69789 -55.80574 2435 ft 108 kts 307°
2026-04-20 18:41 -11.69370 -55.81220 2409 ft 107 kts 308°
2026-04-20 18:42 -11.68929 -55.81830 2388 ft 107 kts 308°
2026-04-20 18:42 -11.68479 -55.82417 2375 ft 104 kts 308°
2026-04-20 18:42 -11.68041 -55.83032 2323 ft 108 kts 307°
2026-04-20 18:42 -11.67624 -55.83647 2357 ft 102 kts 308°
2026-04-20 18:43 -11.67194 -55.84210 2434 ft 100 kts 310°
2026-04-20 18:43 -11.66781 -55.84825 2421 ft 107 kts 301°
2026-04-20 18:43 -11.66461 -55.85509 2419 ft 107 kts 297°
2026-04-20 18:43 -11.66135 -55.86197 2445 ft 107 kts 298°
2026-04-20 18:44 -11.65803 -55.86890 2451 ft 110 kts 297°
2026-04-20 18:44 -11.65472 -55.87583 2508 ft 107 kts 293°
2026-04-20 18:44 -11.65239 -55.88308 2453 ft 111 kts 291°
2026-04-20 18:44 -11.64849 -55.88986 2412 ft 108 kts 311°
2026-04-20 18:45 -11.64332 -55.89529 2434 ft 107 kts 319°
2026-04-20 18:45 -11.63784 -55.90044 2395 ft 108 kts 320°
2026-04-20 18:45 -11.63253 -55.90588 2354 ft 111 kts 305°
2026-04-20 18:45 -11.62925 -55.91275 2359 ft 108 kts 294°
2026-04-20 18:46 -11.62630 -55.91991 2331 ft 110 kts 293°
2026-04-20 18:46 -11.62364 -55.92720 2316 ft 109 kts 290°
2026-04-20 18:46 -11.62098 -55.93427 2357 ft 108 kts 291°
2026-04-20 18:46 -11.61843 -55.94148 2339 ft 107 kts 293°
2026-04-20 18:47 -11.61546 -55.94835 2393 ft 104 kts 294°
2026-04-20 18:47 -11.61226 -55.95521 2326 ft 110 kts 298°
2026-04-20 18:47 -11.60873 -55.96203 2351 ft 106 kts 298°
2026-04-20 18:47 -11.60520 -55.96873 2341 ft 108 kts 300°
2026-04-20 18:48 -11.60165 -55.97533 2353 ft 104 kts 300°
2026-04-20 18:48 -11.59845 -55.98192 2371 ft 103 kts 296°
2026-04-20 18:48 -11.59562 -55.98900 2316 ft 109 kts 290°
2026-04-20 18:48 -11.59295 -55.99599 2364 ft 107 kts 294°
2026-04-20 18:49 -11.59000 -56.00306 2367 ft 107 kts 291°
2026-04-20 18:49 -11.58761 -56.01014 2333 ft 108 kts 290°
2026-04-20 18:49 -11.58493 -56.01730 2310 ft 105 kts 293°
2026-04-20 18:49 -11.58225 -56.02427 2260 ft 107 kts 292°
2026-04-20 18:50 -11.57996 -56.03126 2324 ft 100 kts 290°
2026-04-20 18:50 -11.57752 -56.03793 2372 ft 103 kts 288°
2026-04-20 18:50 -11.57518 -56.04481 2423 ft 103 kts 293°
2026-04-20 18:50 -11.57250 -56.05153 2481 ft 102 kts 293°
2026-04-20 18:51 -11.56980 -56.05833 2504 ft 104 kts 294°
2026-04-20 18:51 -11.56709 -56.06496 2583 ft 101 kts 292°
2026-04-20 18:51 -11.56412 -56.07162 2567 ft 105 kts 300°
2026-04-20 18:51 -11.56038 -56.07822 2536 ft 109 kts 298°
2026-04-20 18:52 -11.55682 -56.08502 2535 ft 107 kts 300°
2026-04-20 18:52 -11.55332 -56.09160 2552 ft 105 kts 298°
2026-04-20 18:52 -11.55008 -56.09828 2541 ft 105 kts 296°
2026-04-20 18:52 -11.54711 -56.10503 2550 ft 106 kts 291°
2026-04-20 18:53 -11.54546 -56.11222 2581 ft 103 kts 276°
2026-04-20 18:53 -11.54568 -56.11961 2574 ft 106 kts 261°
2026-04-20 18:53 -11.54627 -56.12696 2562 ft 108 kts 283°
2026-04-20 18:53 -11.54267 -56.13366 2532 ft 107 kts 305°
2026-04-20 18:54 -11.53851 -56.13975 2589 ft 101 kts 313°
2026-04-20 18:54 -11.53271 -56.14412 2521 ft 106 kts 333°
2026-04-20 18:54 -11.52618 -56.14740 2575 ft 102 kts 336°
2026-04-20 18:54 -11.52045 -56.15199 2499 ft 109 kts 308°
2026-04-20 18:55 -11.51746 -56.15867 2564 ft 102 kts 290°
2026-04-20 18:55 -11.51320 -56.16460 2504 ft 108 kts 323°
2026-04-20 18:55 -11.50662 -56.16835 2470 ft 106 kts 335°
2026-04-20 18:55 -11.50046 -56.17177 2557 ft 100 kts 330°
2026-04-20 18:56 -11.49481 -56.17636 2502 ft 106 kts 310°
2026-04-20 18:56 -11.49161 -56.18298 2532 ft 104 kts 284°
2026-04-20 18:56 -11.49015 -56.19019 2546 ft 104 kts 279°
2026-04-20 18:56 -11.48934 -56.19756 2590 ft 105 kts 273°
2026-04-20 18:57 -11.48910 -56.20492 2618 ft 104 kts 275°
2026-04-20 18:57 -11.48783 -56.21223 2614 ft 104 kts 284°
2026-04-20 18:57 -11.48593 -56.21941 2626 ft 105 kts 286°
2026-04-20 18:57 -11.48409 -56.22651 2658 ft 104 kts 284°
2026-04-20 18:58 -11.48252 -56.23377 2714 ft 102 kts 281°
2026-04-20 18:58 -11.48115 -56.24109 2690 ft 108 kts 282°
2026-04-20 18:58 -11.47976 -56.24836 2766 ft 102 kts 282°
2026-04-20 18:58 -11.47857 -56.25569 2774 ft 105 kts 277°
2026-04-20 18:59 -11.47800 -56.26303 2810 ft 103 kts 275°
2026-04-20 18:59 -11.47676 -56.27054 2720 ft 110 kts 285°
2026-04-20 18:59 -11.47460 -56.27819 2649 ft 112 kts 286°
2026-04-20 18:59 -11.47230 -56.28554 2677 ft 111 kts 290°
2026-04-20 19:00 -11.46962 -56.29298 2684 ft 107 kts 291°
2026-04-20 19:00 -11.46674 -56.29998 2631 ft 110 kts 296°
2026-04-20 19:00 -11.46370 -56.30716 2565 ft 110 kts 288°
2026-04-20 19:00 -11.46231 -56.31482 2503 ft 109 kts 279°
2026-04-20 19:01 -11.46109 -56.32246 2464 ft 109 kts 279°
2026-04-20 19:01 -11.46009 -56.33002 2411 ft 108 kts 277°
2026-04-20 19:01 -11.45928 -56.33762 2373 ft 108 kts 276°
2026-04-20 19:01 -11.45838 -56.34534 2326 ft 108 kts 279°
2026-04-20 19:02 -11.45699 -56.35260 2341 ft 105 kts 283°
2026-04-20 19:02 -11.45539 -56.35968 2403 ft 100 kts 283°
2026-04-20 19:02 -11.45411 -56.36680 2374 ft 104 kts 278°
2026-04-20 19:02 -11.45268 -56.37394 2405 ft 102 kts 284°
2026-04-20 19:03 -11.45046 -56.38079 2421 ft 103 kts 302°
2026-04-20 19:03 -11.44469 -56.38504 2368 ft 104 kts 347°
2026-04-20 19:03 -11.43828 -56.38806 2399 ft 105 kts 317°
2026-04-20 19:03 -11.43415 -56.39400 2463 ft 99 kts 302°
2026-04-20 19:04 -11.43098 -56.40038 2446 ft 104 kts 291°
2026-04-20 19:04 -11.42885 -56.40732 2485 ft 100 kts 286°
2026-04-20 19:04 -11.42716 -56.41428 2493 ft 102 kts 283°
2026-04-20 19:04 -11.42570 -56.42131 2511 ft 101 kts 280°
2026-04-20 19:05 -11.42485 -56.42842 2531 ft 101 kts 274°
2026-04-20 19:05 -11.42503 -56.43561 2549 ft 101 kts 263°
2026-04-20 19:05 -11.42643 -56.44264 2556 ft 102 kts 262°
2026-04-20 19:05 -11.42584 -56.44988 2548 ft 102 kts 283°
2026-04-20 19:06 -11.42394 -56.45674 2581 ft 101 kts 286°
2026-04-20 19:06 -11.42263 -56.46383 2584 ft 101 kts 281°
2026-04-20 19:06 -11.42159 -56.46848 2584 ft 102 kts 284°
2026-04-20 19:06 -11.41912 -56.47774 2609 ft 102 kts 285°
2026-04-20 19:07 -11.41801 -56.48240 2619 ft 102 kts 282°
2026-04-20 19:07 -11.41679 -56.49183 2644 ft 102 kts 272°
2026-04-20 19:07 -11.41691 -56.49905 2663 ft 101 kts 272°
2026-04-20 19:07 -11.41609 -56.50621 2671 ft 102 kts 279°
2026-04-20 19:08 -11.41526 -56.51090 2693 ft 101 kts 281°
2026-04-20 19:08 -11.41258 -56.52550 2619 ft 106 kts 283°
2026-04-20 19:08 -11.41091 -56.53269 2618 ft 105 kts 283°
2026-04-20 19:09 -11.40956 -56.54012 2590 ft 106 kts 278°
2026-04-20 19:09 -11.40869 -56.54751 2574 ft 105 kts 275°
2026-04-20 19:09 -11.40818 -56.55495 2553 ft 105 kts 275°
2026-04-20 19:09 -11.40722 -56.56234 2529 ft 105 kts 279°
2026-04-20 19:10 -11.40592 -56.56968 2507 ft 105 kts 281°
2026-04-20 19:10 -11.40450 -56.57696 2491 ft 105 kts 281°
2026-04-20 19:10 -11.40317 -56.58432 2468 ft 105 kts 279°
2026-04-20 19:10 -11.40186 -56.59164 2447 ft 105 kts 281°
2026-04-20 19:11 -11.40038 -56.59896 2431 ft 105 kts 282°
2026-04-20 19:11 -11.39902 -56.60628 2398 ft 105 kts 280°
2026-04-20 19:11 -11.39788 -56.61363 2384 ft 105 kts 279°
2026-04-20 19:11 -11.39616 -56.62087 2357 ft 105 kts 288°
2026-04-20 19:12 -11.39377 -56.62789 2342 ft 105 kts 287°
2026-04-20 19:12 -11.39181 -56.63506 2325 ft 105 kts 287°
2026-04-20 19:12 -11.38954 -56.64211 2305 ft 105 kts 290°
2026-04-20 19:12 -11.38702 -56.64910 2288 ft 105 kts 291°
2026-04-20 19:13 -11.38448 -56.65605 2277 ft 105 kts 290°
2026-04-20 19:13 -11.38137 -56.66277 2280 ft 103 kts 298°
2026-04-20 19:13 -11.37821 -56.66897 2362 ft 99 kts 297°
2026-04-20 19:13 -11.37537 -56.67543 2425 ft 99 kts 291°
2026-04-20 19:14 -11.37345 -56.68213 2483 ft 100 kts 285°
2026-04-20 19:14 -11.37077 -56.68859 2526 ft 100 kts 295°
2026-04-20 19:14 -11.36759 -56.69519 2505 ft 106 kts 298°
2026-04-20 19:14 -11.36409 -56.70165 2562 ft 103 kts 300°
2026-04-20 19:15 -11.36030 -56.70795 2574 ft 106 kts 303°
2026-04-20 19:15 -11.35647 -56.71422 2631 ft 103 kts 300°
2026-04-20 19:15 -11.35312 -56.72072 2637 ft 105 kts 295°
2026-04-20 19:15 -11.35014 -56.72746 2669 ft 104 kts 297°
2026-04-20 19:16 -11.34689 -56.73440 2585 ft 112 kts 294°
2026-04-20 19:16 -11.34418 -56.74137 2666 ft 102 kts 289°
2026-04-20 19:16 -11.34196 -56.74851 2625 ft 108 kts 291°
2026-04-20 19:16 -11.33877 -56.75549 2596 ft 109 kts 295°
2026-04-20 19:17 -11.33572 -56.76249 2576 ft 110 kts 292°
2026-04-20 19:17 -11.33285 -56.76972 2550 ft 108 kts 292°
2026-04-20 19:17 -11.32999 -56.77663 2587 ft 105 kts 292°
2026-04-20 19:17 -11.32734 -56.78359 2581 ft 106 kts 289°
2026-04-20 19:18 -11.32451 -56.79046 2562 ft 108 kts 308°
2026-04-20 19:18 -11.31974 -56.79645 2529 ft 108 kts 305°
2026-04-20 19:18 -11.31586 -56.80276 2570 ft 105 kts 298°
2026-04-20 19:18 -11.31239 -56.80942 2541 ft 108 kts 298°
2026-04-20 19:19 -11.30879 -56.81639 2437 ft 114 kts 297°
2026-04-20 19:19 -11.30514 -56.82344 2454 ft 103 kts 298°
2026-04-20 19:19 -11.30165 -56.82967 2456 ft 106 kts 298°
2026-04-20 19:19 -11.29931 -56.83687 2417 ft 107 kts 277°
2026-04-20 19:20 -11.29927 -56.84433 2435 ft 105 kts 266°
2026-04-20 19:20 -11.29962 -56.85179 2418 ft 106 kts 266°
2026-04-20 19:20 -11.30008 -56.85924 2415 ft 105 kts 264°
2026-04-20 19:20 -11.30086 -56.86666 2401 ft 105 kts 264°
2026-04-20 19:21 -11.30106 -56.87409 2390 ft 105 kts 270°
2026-04-20 19:21 -11.30073 -56.88156 2385 ft 105 kts 275°
2026-04-20 19:21 -11.29971 -56.88890 2372 ft 105 kts 279°
2026-04-20 19:21 -11.29833 -56.89624 2374 ft 105 kts 281°
2026-04-20 19:22 -11.29686 -56.90352 2370 ft 105 kts 280°
2026-04-20 19:22 -11.29545 -56.91087 2367 ft 105 kts 279°
2026-04-20 19:22 -11.29437 -56.91822 2361 ft 105 kts 276°
2026-04-20 19:22 -11.29381 -56.92562 2367 ft 105 kts 271°
2026-04-20 19:23 -11.29387 -56.93308 2361 ft 105 kts 266°
2026-04-20 19:23 -11.29457 -56.94047 2359 ft 105 kts 261°
2026-04-20 19:23 -11.29516 -56.94789 2355 ft 105 kts 270°
2026-04-20 19:23 -11.29463 -56.95533 2351 ft 105 kts 275°
2026-04-20 19:24 -11.29404 -56.96276 2332 ft 105 kts 268°
2026-04-20 19:24 -11.29489 -56.97016 2314 ft 105 kts 260°
2026-04-20 19:24 -11.29565 -56.97754 2295 ft 105 kts 266°
2026-04-20 19:24 -11.29587 -56.98488 2312 ft 103 kts 270°
2026-04-20 19:25 -11.29526 -56.99197 2378 ft 99 kts 276°
2026-04-20 19:25 -11.29455 -56.99893 2424 ft 100 kts 273°
2026-04-20 19:25 -11.29454 -57.00620 2392 ft 105 kts 268°
2026-04-20 19:25 -11.29459 -57.01378 2396 ft 105 kts 270°
2026-04-20 19:26 -11.29449 -57.02111 2406 ft 105 kts 270°
2026-04-20 19:26 -11.29460 -57.02852 2419 ft 105 kts 267°
2026-04-20 19:26 -11.29484 -57.03596 2422 ft 105 kts 268°
2026-04-20 19:26 -11.29502 -57.04338 2439 ft 105 kts 267°
2026-04-20 19:27 -11.29557 -57.05075 2449 ft 105 kts 263°
2026-04-20 19:27 -11.29670 -57.05809 2458 ft 105 kts 258°
2026-04-20 19:27 -11.29820 -57.06534 2454 ft 105 kts 264°
2026-04-20 19:27 -11.29865 -57.07283 2443 ft 106 kts 267°
2026-04-20 19:28 -11.29898 -57.08024 2453 ft 104 kts 267°
2026-04-20 19:28 -11.29912 -57.08768 2437 ft 105 kts 269°
2026-04-20 19:28 -11.29911 -57.09511 2447 ft 105 kts 272°
2026-04-20 19:28 -11.29951 -57.10256 2450 ft 105 kts 267°
2026-04-20 19:29 -11.29965 -57.10997 2450 ft 105 kts 266°
2026-04-20 19:29 -11.30041 -57.11737 2461 ft 105 kts 265°
2026-04-20 19:29 -11.30030 -57.12482 2439 ft 107 kts 279°
2026-04-20 19:29 -11.29827 -57.13197 2450 ft 105 kts 290°
2026-04-20 19:30 -11.29533 -57.13879 2449 ft 106 kts 296°
2026-04-20 19:30 -11.29187 -57.14542 2458 ft 105 kts 298°
2026-04-20 19:30 -11.28836 -57.15197 2458 ft 106 kts 297°
2026-04-20 19:30 -11.28518 -57.15871 2466 ft 105 kts 294°
2026-04-20 19:31 -11.28257 -57.16569 2479 ft 106 kts 287°
2026-04-20 19:31 -11.28039 -57.17282 2482 ft 106 kts 287°
2026-04-20 19:31 -11.27846 -57.18003 2497 ft 105 kts 283°
2026-04-20 19:31 -11.27705 -57.18734 2505 ft 105 kts 278°
2026-04-20 19:32 -11.27629 -57.19475 2511 ft 105 kts 273°
2026-04-20 19:32 -11.27608 -57.20220 2516 ft 105 kts 271°
2026-04-20 19:32 -11.27578 -57.20966 2521 ft 106 kts 272°
2026-04-20 19:32 -11.27531 -57.21709 2521 ft 105 kts 274°
2026-04-20 19:33 -11.27487 -57.22455 2528 ft 106 kts 272°
2026-04-20 19:33 -11.27474 -57.23200 2538 ft 105 kts 269°
2026-04-20 19:33 -11.27496 -57.23946 2541 ft 105 kts 267°
2026-04-20 19:33 -11.27542 -57.24689 2545 ft 105 kts 265°
2026-04-20 19:34 -11.27609 -57.25432 2553 ft 105 kts 263°
2026-04-20 19:34 -11.27675 -57.26176 2553 ft 106 kts 268°
2026-04-20 19:34 -11.27681 -57.26921 2559 ft 105 kts 270°
2026-04-20 19:34 -11.27685 -57.27666 2568 ft 105 kts 268°
2026-04-20 19:35 -11.27727 -57.28410 2566 ft 105 kts 267°
2026-04-20 19:35 -11.27706 -57.29157 2557 ft 106 kts 275°
2026-04-20 19:35 -11.27637 -57.29899 2569 ft 105 kts 275°
2026-04-20 19:35 -11.27579 -57.30644 2577 ft 105 kts 273°
2026-04-20 19:36 -11.27558 -57.31391 2581 ft 105 kts 270°
2026-04-20 19:36 -11.27590 -57.32134 2586 ft 105 kts 264°
2026-04-20 19:36 -11.27669 -57.32877 2583 ft 106 kts 264°
2026-04-20 19:36 -11.27744 -57.33613 2584 ft 106 kts 263°
2026-04-20 19:37 -11.27783 -57.34358 2586 ft 106 kts 270°
2026-04-20 19:37 -11.27753 -57.35106 2586 ft 105 kts 273°
2026-04-20 19:37 -11.27720 -57.35864 2592 ft 106 kts 271°
2026-04-20 19:37 -11.27713 -57.36612 2592 ft 106 kts 270°
2026-04-20 19:38 -11.27703 -57.37351 2595 ft 106 kts 271°
2026-04-20 19:38 -11.27681 -57.38099 2599 ft 106 kts 271°
2026-04-20 19:38 -11.27670 -57.38847 2596 ft 106 kts 276°
2026-04-20 19:38 -11.27532 -57.39589 2589 ft 106 kts 283°
2026-04-20 19:39 -11.27357 -57.40314 2593 ft 106 kts 283°
2026-04-20 19:39 -11.27188 -57.41044 2591 ft 106 kts 282°
2026-04-20 19:39 -11.27049 -57.41780 2598 ft 106 kts 279°
2026-04-20 19:39 -11.26961 -57.42524 2593 ft 106 kts 274°
2026-04-20 19:40 -11.26899 -57.43272 2600 ft 106 kts 274°
2026-04-20 19:40 -11.26861 -57.44021 2599 ft 106 kts 272°
2026-04-20 19:40 -11.26808 -57.44769 2600 ft 106 kts 275°
2026-04-20 19:40 -11.26747 -57.45517 2608 ft 106 kts 274°
2026-04-20 19:41 -11.26712 -57.46268 2614 ft 106 kts 270°
2026-04-20 19:41 -11.26686 -57.47019 2621 ft 106 kts 276°
2026-04-20 19:41 -11.26540 -57.47757 2617 ft 107 kts 287°
2026-04-20 19:41 -11.26260 -57.48460 2604 ft 108 kts 294°
2026-04-20 19:42 -11.26056 -57.49206 2559 ft 108 kts 274°
2026-04-20 19:42 -11.26112 -57.49983 2461 ft 113 kts 258°
2026-04-20 19:42 -11.26312 -57.50751 2402 ft 112 kts 253°
2026-04-20 19:42 -11.26579 -57.51492 2342 ft 111 kts 247°
2026-04-20 19:43 -11.26855 -57.52224 2304 ft 110 kts 250°
2026-04-20 19:43 -11.27143 -57.52936 2286 ft 107 kts 243°
2026-04-20 19:43 -11.27465 -57.53602 2272 ft 108 kts 246°
2026-04-20 19:43 -11.27699 -57.54350 2171 ft 113 kts 263°
2026-04-20 19:44 -11.27656 -57.55120 2201 ft 107 kts 281°
2026-04-20 19:44 -11.27481 -57.55883 2114 ft 112 kts 285°
2026-04-20 19:44 -11.27260 -57.56613 2188 ft 103 kts 286°
2026-04-20 19:44 -11.27222 -57.57335 2218 ft 102 kts 259°
2026-04-20 19:45 -11.27466 -57.58013 2259 ft 101 kts 247°
2026-04-20 19:45 -11.27736 -57.58658 2355 ft 96 kts 245°
2026-04-20 19:45 -11.28061 -57.59255 2413 ft 99 kts 238°
2026-04-20 19:45 -11.28376 -57.59875 2493 ft 97 kts 245°
2026-04-20 19:46 -11.28666 -57.60519 2509 ft 102 kts 244°
2026-04-20 19:46 -11.28972 -57.61165 2555 ft 101 kts 243°
2026-04-20 19:46 -11.29290 -57.61805 2591 ft 102 kts 244°
2026-04-20 19:46 -11.29585 -57.62460 2630 ft 101 kts 246°
2026-04-20 19:47 -11.29813 -57.63140 2662 ft 102 kts 256°
2026-04-20 19:47 -11.29965 -57.63854 2691 ft 102 kts 258°
2026-04-20 19:47 -11.30121 -57.64556 2726 ft 104 kts 255°
2026-04-20 19:47 -11.30328 -57.65284 2673 ft 109 kts 255°
2026-04-20 19:48 -11.30478 -57.66053 2586 ft 114 kts 261°
2026-04-20 19:48 -11.30616 -57.66843 2540 ft 110 kts 258°
2026-04-20 19:48 -11.30777 -57.67579 2573 ft 107 kts 256°
2026-04-20 19:48 -11.30974 -57.68314 2570 ft 106 kts 253°
2026-04-20 19:49 -11.31166 -57.69043 2565 ft 107 kts 256°
2026-04-20 19:49 -11.31342 -57.69780 2569 ft 107 kts 256°
2026-04-20 19:49 -11.31530 -57.70503 2561 ft 108 kts 253°
2026-04-20 19:49 -11.31760 -57.71225 2569 ft 107 kts 250°
2026-04-20 19:50 -11.31993 -57.71946 2553 ft 108 kts 253°
2026-04-20 19:50 -11.32189 -57.72677 2552 ft 107 kts 255°
2026-04-20 19:50 -11.32380 -57.73412 2551 ft 107 kts 255°
2026-04-20 19:50 -11.32586 -57.74141 2553 ft 107 kts 252°
2026-04-20 19:51 -11.32829 -57.74859 2545 ft 107 kts 249°
2026-04-20 19:51 -11.33116 -57.75558 2544 ft 107 kts 246°
2026-04-20 19:51 -11.33419 -57.76257 2542 ft 109 kts 246°
2026-04-20 19:51 -11.33725 -57.76954 2591 ft 107 kts 245°
2026-04-20 19:52 -11.34073 -57.77629 2618 ft 108 kts 239°
2026-04-20 19:52 -11.34395 -57.78315 2631 ft 109 kts 251°
2026-04-20 19:52 -11.34617 -57.79043 2617 ft 105 kts 254°
2026-04-20 19:52 -11.34801 -57.79771 2563 ft 106 kts 257°
2026-04-20 19:53 -11.34953 -57.80491 2575 ft 104 kts 258°
2026-04-20 19:53 -11.35109 -57.81208 2562 ft 104 kts 256°
2026-04-20 19:53 -11.35282 -57.81925 2544 ft 104 kts 256°
2026-04-20 19:53 -11.35455 -57.82638 2536 ft 104 kts 256°
2026-04-20 19:54 -11.35622 -57.83352 2525 ft 104 kts 258°
2026-04-20 19:54 -11.35744 -57.84077 2486 ft 104 kts 262°
2026-04-20 19:54 -11.35863 -57.84801 2459 ft 103 kts 261°
2026-04-20 19:54 -11.35974 -57.85525 2428 ft 103 kts 262°
2026-04-20 19:55 -11.36084 -57.86247 2410 ft 103 kts 259°
2026-04-20 19:55 -11.36257 -57.86960 2368 ft 103 kts 256°
2026-04-20 19:55 -11.36436 -57.87668 2339 ft 103 kts 255°
2026-04-20 19:55 -11.36618 -57.88374 2316 ft 103 kts 255°
2026-04-20 19:56 -11.36742 -57.88841 2298 ft 103 kts 255°
2026-04-20 19:56 -11.36921 -57.89764 2357 ft 96 kts 260°
2026-04-20 19:56 -11.37051 -57.90417 2403 ft 96 kts 256°
2026-04-20 19:56 -11.37211 -57.91078 2444 ft 98 kts 258°
2026-04-20 19:57 -11.37334 -57.91784 2448 ft 101 kts 260°
2026-04-20 19:57 -11.37454 -57.92480 2496 ft 100 kts 259°
2026-04-20 19:57 -11.37609 -57.93179 2491 ft 101 kts 254°
2026-04-20 19:57 -11.37795 -57.93865 2515 ft 101 kts 254°
2026-04-20 19:58 -11.37992 -57.94546 2529 ft 100 kts 251°
2026-04-20 19:58 -11.38245 -57.95209 2529 ft 100 kts 244°
2026-04-20 19:58 -11.38518 -57.95861 2558 ft 100 kts 250°
2026-04-20 19:58 -11.38710 -57.96546 2563 ft 101 kts 256°
2026-04-20 19:59 -11.38856 -57.97239 2576 ft 100 kts 258°
2026-04-20 19:59 -11.39005 -57.97936 2586 ft 100 kts 256°
2026-04-20 19:59 -11.39099 -57.98644 2581 ft 102 kts 270°
2026-04-20 19:59 -11.39060 -57.99119 2598 ft 101 kts 276°
2026-04-20 20:00 -11.39011 -57.99830 2605 ft 101 kts 271°
2026-04-20 20:00 -11.39010 -58.00546 2623 ft 100 kts 268°
2026-04-20 20:00 -11.39044 -58.01259 2614 ft 102 kts 259°
2026-04-20 20:00 -11.39184 -58.01959 2627 ft 100 kts 257°
2026-04-20 20:01 -11.39321 -58.02660 2620 ft 102 kts 258°
2026-04-20 20:01 -11.39471 -58.03358 2641 ft 100 kts 257°
2026-04-20 20:01 -11.39622 -58.04055 2634 ft 101 kts 256°
2026-04-20 20:01 -11.39799 -58.04742 2650 ft 100 kts 252°
2026-04-20 20:02 -11.40016 -58.05422 2655 ft 101 kts 252°
2026-04-20 20:02 -11.40227 -58.06101 2663 ft 100 kts 251°
2026-04-20 20:02 -11.40425 -58.06788 2681 ft 102 kts 261°
2026-04-20 20:02 -11.40468 -58.07525 2684 ft 103 kts 268°
2026-04-20 20:03 -11.40492 -58.08232 2757 ft 100 kts 267°
2026-04-20 20:03 -11.40503 -58.08965 2735 ft 104 kts 269°
2026-04-20 20:03 -11.40507 -58.09712 2672 ft 110 kts 268°
2026-04-20 20:03 -11.40516 -58.10493 2595 ft 112 kts 269°
2026-04-20 20:04 -11.40492 -58.11271 2608 ft 106 kts 273°
2026-04-20 20:04 -11.40428 -58.11998 2665 ft 102 kts 271°
2026-04-20 20:04 -11.40450 -58.12725 2632 ft 104 kts 267°
2026-04-20 20:04 -11.40476 -58.13458 2628 ft 103 kts 267°
2026-04-20 20:05 -11.40508 -58.14190 2610 ft 103 kts 266°
2026-04-20 20:05 -11.40557 -58.14921 2590 ft 103 kts 263°
2026-04-20 20:05 -11.40702 -58.15636 2575 ft 103 kts 255°
2026-04-20 20:05 -11.40897 -58.16336 2559 ft 103 kts 251°
2026-04-20 20:06 -11.41136 -58.17022 2553 ft 103 kts 248°
2026-04-20 20:06 -11.41414 -58.17694 2540 ft 102 kts 246°
2026-04-20 20:06 -11.41679 -58.18368 2525 ft 103 kts 248°
2026-04-20 20:06 -11.41883 -58.19064 2510 ft 103 kts 257°
2026-04-20 20:07 -11.42004 -58.19783 2509 ft 103 kts 260°
2026-04-20 20:07 -11.42121 -58.20500 2496 ft 103 kts 259°
2026-04-20 20:07 -11.42261 -58.21213 2478 ft 103 kts 256°
2026-04-20 20:07 -11.42444 -58.21914 2476 ft 102 kts 254°
2026-04-20 20:08 -11.42616 -58.22617 2460 ft 102 kts 256°
2026-04-20 20:08 -11.42777 -58.23323 2452 ft 103 kts 256°
2026-04-20 20:08 -11.42938 -58.24029 2452 ft 102 kts 256°
2026-04-20 20:08 -11.43114 -58.24731 2435 ft 102 kts 256°
2026-04-20 20:09 -11.43264 -58.25430 2426 ft 102 kts 258°
2026-04-20 20:09 -11.43401 -58.26141 2410 ft 102 kts 258°
2026-04-20 20:09 -11.43548 -58.26850 2409 ft 102 kts 256°
2026-04-20 20:09 -11.43728 -58.27550 2404 ft 102 kts 253°
2026-04-20 20:10 -11.43827 -58.28265 2360 ft 105 kts 275°
2026-04-20 20:10 -11.43646 -58.28979 2362 ft 102 kts 281°
2026-04-20 20:10 -11.43421 -58.29670 2323 ft 104 kts 292°
2026-04-20 20:10 -11.43083 -58.30316 2329 ft 103 kts 303°
2026-04-20 20:11 -11.42678 -58.30921 2315 ft 103 kts 302°
2026-04-20 20:11 -11.42231 -58.31496 2300 ft 104 kts 313°
2026-04-20 20:11 -11.41698 -58.31988 2307 ft 102 kts 320°
2026-04-20 20:11 -11.41163 -58.32445 2330 ft 101 kts 313°
2026-04-20 20:12 -11.40842 -58.33100 2244 ft 106 kts 282°
2026-04-20 20:12 -11.40790 -58.33820 2266 ft 101 kts 266°
2026-04-20 20:12 -11.40813 -58.34533 2266 ft 100 kts 268°
2026-04-20 20:13 -11.40893 -58.35938 2281 ft 99 kts 264°
2026-04-20 20:13 -11.40966 -58.36640 2291 ft 99 kts 263°
2026-04-20 20:13 -11.41043 -58.37335 2303 ft 100 kts 261°
2026-04-20 20:13 -11.41113 -58.38036 2327 ft 99 kts 263°
2026-04-20 20:14 -11.41212 -58.38731 2330 ft 99 kts 259°
2026-04-20 20:14 -11.41314 -58.39426 2340 ft 100 kts 264°
2026-04-20 20:14 -11.41344 -58.40129 2350 ft 99 kts 267°
2026-04-20 20:14 -11.41372 -58.40820 2386 ft 98 kts 267°
2026-04-20 20:15 -11.41397 -58.41528 2363 ft 100 kts 267°
2026-04-20 20:15 -11.41427 -58.42228 2372 ft 99 kts 265°
2026-04-20 20:15 -11.41503 -58.42921 2371 ft 99 kts 259°
2026-04-20 20:15 -11.41640 -58.43605 2367 ft 100 kts 262°
2026-04-20 20:16 -11.41658 -58.44313 2366 ft 99 kts 269°
2026-04-20 20:16 -11.41658 -58.45012 2371 ft 99 kts 267°
2026-04-20 20:16 -11.41712 -58.45716 2373 ft 99 kts 261°
2026-04-20 20:16 -11.41795 -58.46412 2380 ft 99 kts 262°
2026-04-20 20:17 -11.41877 -58.47111 2388 ft 99 kts 265°
2026-04-20 20:17 -11.41890 -58.47817 2397 ft 99 kts 269°
2026-04-20 20:17 -11.41898 -58.48521 2404 ft 100 kts 267°
2026-04-20 20:17 -11.41937 -58.49224 2412 ft 99 kts 265°
2026-04-20 20:18 -11.41996 -58.49926 2416 ft 99 kts 263°
2026-04-20 20:18 -11.42090 -58.50623 2418 ft 99 kts 262°
2026-04-20 20:18 -11.42162 -58.51324 2426 ft 99 kts 263°
2026-04-20 20:18 -11.42250 -58.52022 2431 ft 99 kts 262°
2026-04-20 20:19 -11.42349 -58.52720 2430 ft 100 kts 261°
2026-04-20 20:19 -11.42469 -58.53413 2436 ft 100 kts 261°
2026-04-20 20:19 -11.42565 -58.54116 2463 ft 99 kts 262°
2026-04-20 20:19 -11.42652 -58.54814 2486 ft 100 kts 263°
2026-04-20 20:20 -11.42736 -58.55516 2510 ft 99 kts 262°
2026-04-20 20:20 -11.42829 -58.56216 2509 ft 100 kts 261°
2026-04-20 20:20 -11.42972 -58.56907 2524 ft 99 kts 253°
2026-04-20 20:20 -11.43242 -58.57558 2525 ft 100 kts 248°
2026-04-20 20:21 -11.43415 -58.58248 2535 ft 100 kts 261°
2026-04-20 20:21 -11.43506 -58.58939 2566 ft 100 kts 262°
2026-04-20 20:21 -11.43594 -58.59642 2579 ft 100 kts 265°
2026-04-20 20:21 -11.43642 -58.60349 2605 ft 100 kts 266°
2026-04-20 20:22 -11.43693 -58.61054 2609 ft 100 kts 264°
2026-04-20 20:22 -11.43777 -58.61759 2631 ft 99 kts 262°
2026-04-20 20:22 -11.43878 -58.62458 2643 ft 100 kts 262°
2026-04-20 20:22 -11.43988 -58.63158 2668 ft 100 kts 259°
2026-04-20 20:23 -11.44134 -58.63849 2675 ft 100 kts 256°
2026-04-20 20:23 -11.44327 -58.64528 2675 ft 100 kts 251°
2026-04-20 20:23 -11.44499 -58.65216 2670 ft 101 kts 263°
2026-04-20 20:23 -11.44536 -58.65923 2682 ft 99 kts 269°
2026-04-20 20:24 -11.44556 -58.66634 2691 ft 100 kts 268°
2026-04-20 20:24 -11.44601 -58.67342 2690 ft 101 kts 264°
2026-04-20 20:24 -11.44697 -58.68050 2714 ft 100 kts 260°
2026-04-20 20:24 -11.44710 -58.68759 2702 ft 102 kts 279°
2026-04-20 20:25 -11.44507 -58.69472 2587 ft 107 kts 293°
2026-04-20 20:25 -11.44165 -58.70158 2460 ft 110 kts 300°
2026-04-20 20:25 -11.43755 -58.70785 2435 ft 103 kts 309°
2026-04-20 20:25 -11.43248 -58.71265 2356 ft 99 kts 327°
2026-04-20 20:26 -11.42639 -58.71567 2256 ft 97 kts 343°
2026-04-20 20:26 -11.41985 -58.71728 2132 ft 98 kts 351°
2026-04-20 20:26 -11.41310 -58.71812 2041 ft 96 kts 354°
2026-04-20 20:26 -11.40684 -58.72007 1991 ft 93 kts 338°
2026-04-20 20:27 -11.40091 -58.72206 1973 ft 88 kts 350°
2026-04-20 20:27 -11.39490 -58.72189 1930 ft 88 kts 20°
2026-04-20 20:27 -11.39170 -58.71754 1880 ft 80 kts 93°
2026-04-20 20:27 -11.39506 -58.71313 1726 ft 84 kts 162°
2026-04-20 20:28 -11.40110 -58.71345 1509 ft 90 kts 182°
2026-04-20 20:28 -11.40721 -58.71254 1311 ft 88 kts 169°
2026-04-20 20:28 -11.41307 -58.71143 1105 ft 84 kts 168°
2026-04-20 20:28 -11.41819 -58.71029 1070 ft 65 kts 167°
2026-04-20 20:29 -11.42077 -58.70976 1070 ft 15 kts 179°
2026-04-20 20:29 -11.42078 -58.70965 1070 ft 7 kts 343°
2026-04-20 20:29 -11.42009 -58.70985 1070 ft 14 kts 345°
2026-04-20 20:29 -11.41892 -58.71009 1070 ft 20 kts 347°
2026-04-20 20:30 -11.41812 -58.70968 1069 ft 5 kts 78°
2026-04-20 20:30 -11.41810 -58.70960 1069 ft 0 kts 75°
2026-04-20 20:30 -11.41809 -58.70953 1068 ft 8 kts 74°
2026-04-20 20:30 -11.41799 -58.70858 1068 ft 11 kts 101°
2026-04-20 20:31 -11.41788 -58.70850 1068 ft 0 kts 257°